Regional Weather Roundup
Issued by NWS

Home | Current Version | Previous Version | Graphics & Text | Print | Product List | Glossary On
Versions: 1 2 3 4 5 6 7 8 9 10 11 12 13 14 15 16 17 18 19 20 21 22 23 24 25 26 27 28 29 30 31 32 33 34 35 36 37 38 39 40 41 42 43 44 45 46 47 48 49 50
447
ASUS44 KLIX 012210
RWRLA
LOUISIANA WEATHER ROUNDUP
NATIONAL WEATHER SERVICE NEW ORLEANS LA
500 PM CDT MON SEP 01 2014

NOTE: "FAIR" INDICATES FEW OR NO CLOUDS BELOW 12,000 FEET WITH NO
      SIGNIFICANT WEATHER AND/OR OBSTRUCTIONS TO VISIBILITY.
      SKY/WX - SKY CONDITION AND SIGNIFICANT WEATHER.
      TMP - AIR TEMPERATURE.    DP   - DEWPOINT TEMPERATURE.
      RH  - RELATIVE HUMIDITY.  PRES - PRESSURE.
      HX  - HEAT INDEX.         WCI  - WIND CHILL INDEX.

*  THESE STATIONS ARE NOT NWS OR FAA STATIONS AND ARE NOT UNDER
   NWS QUALITY CONTROL.

LAZ040-048-061>063-065-066-069-012300-
SOUTHEAST LOUISIANA

CITY           SKY/WX    TMP DP  RH WIND       PRES   REMARKS
N.O. AUDUBON     N/A     86 N/A N/A MISG        N/A
N.O. INTL ARPT PTSUNNY   84  74  71 E6        29.99F
N.O. LAKEFRONT LGT RAIN  79  75  87 SE9       30.00F
N.O. DOWNTOWN* FAIR      82  73  74 E5        30.00F
SLIDELL        PTSUNNY   80  76  87 CALM      30.01R THUNDER
BATON ROUGE    CLOUDY    82  73  74 SE8       29.97F
BOOTHVILLE     PTSUNNY   87  78  74 S13       30.01F HX 100
BELLE CHASSE   PTSUNNY   88  72  58 S14       29.98F
BOGALUSA*      FAIR      87  74  66 S6G16     30.02S HX  96
GALLIANO*      NOT AVBL
NEW ROADS*     FAIR      82  75  78 E5        29.97F
GONZALES*      FAIR      83  77  83 SE3       29.97F
HAMMOND*       PTSUNNY   86  73  66 SE12G21   30.01S
HOUMA*         MOSUNNY   86  75  70 S8        29.99F HX  95
PORT FOURCHON* PTCLDY    88  75  66 S13       30.01F HX  97

$$

LAZ041-044-053-054-012300-
SOUTHWEST LOUISIANA

CITY           SKY/WX    TMP DP  RH WIND       PRES   REMARKS
LAKE CHARLES   PTSUNNY   89  76  65 S12       29.93F HX 100
LAFAYETTE      CLOUDY    87  77  72 S9        29.95F HX  99
PATTERSON      PTSUNNY   90  77  66 SE12      30.00F HX 102
SALT POINT       N/A     90  78  68 VRB7      29.96F HX 104
NEW IBERIA     PTSUNNY   90  78  68 S12       29.96F HX 104
CHENAULT AIRPK MOSUNNY   88  73  62 S14       29.94F HX  96

$$

LAZ027-028-012300-
CENTRAL LOUISIANA

CITY           SKY/WX    TMP DP  RH WIND       PRES   REMARKS
FORT POLK      PTSUNNY   85  76  74 S6        29.94F
ALEXANDRIA INT PTSUNNY   84  78  82 CALM      29.94R HX  95
ALEXANDRIA     TSTM      81  76  84 SE6       29.96R

$$

LAZ001-002-012300-
NORTHWEST LOUISIANA

CITY           SKY/WX    TMP DP  RH WIND       PRES   REMARKS
SHREVEPORT     MOSUNNY   94  69  44 S12       29.89F HX  99
BARKSDALE AFB  MOSUNNY   93  74  54 SE12      29.90F HX 103
DTN SHREVEPORT PTSUNNY   90  73  57 SE8       29.90F HX  98

$$

LAZ014-016-012300-
NORTHEAST LOUISIANA

CITY           SKY/WX    TMP DP  RH WIND       PRES   REMARKS
MONROE         PTSUNNY   92  73  53 S8        29.96S HX 100
TALLULAH       PTSUNNY   81  72  74 S17       29.99R

$$




USA.gov is the U.S. government's official web portal to all federal, state and local government web resources and services.